ES0THZ-13 Weather Reports


Display with metric or nautical units.
time (UTC)temp
F
wind
direction
speed
MPH
gust
MPH
rain 1hr
in
rain 24hr
in
rain mn
in
humidity
%
barometer
mb
20260507082846 58 22 0.0 0.0 0.00 0.00 0.00 61 1008.9
20260507081226 56 22 0.0 0.0 0.00 0.00 0.00 62 1009.2
20260507075406 55 45 0.0 11.0 0.00 0.00 0.00 63 1009.5
20260507073741 53 45 0.0 0.0 0.00 0.00 0.00 64 1009.9
20260507071956 54 0 0.0 9.0 0.00 0.00 0.00 64 1009.7
20260507070146 51 45 0.0 0.0 0.00 0.00 0.00 65 1010.1
20260507064311 50 0 0.0 0.0 0.00 0.00 0.00 66 1008.8
20260507062521 50 0 0.0 0.0 0.00 0.00 0.00 66 1008.8
20260507060626 49 22 0.0 0.0 0.00 0.00 0.00 66 1009.2
20260507054906 48 337 0.0 0.0 0.00 0.00 0.00 67 1009.3
20260507053006 48 22 0.0 0.0 0.00 0.00 0.00 66 1008.6
20260507051341 49 0 0.0 0.0 0.00 0.00 0.00 65 1008.7
20260507045501 47 0 0.0 0.0 0.00 0.00 0.00 67 1007.7
20260507043741 46 45 0.0 0.0 0.00 0.00 0.00 68 1008.3
20260507041941 43 0 0.0 0.0 0.00 0.00 0.00 69 1009.1
20260507040326 42 0 0.0 0.0 0.00 0.00 0.00 69 1008.1
20260507034441 42 0 0.0 0.0 0.00 0.00 0.00 69 1008.2
20260507032611 42 0 0.0 0.0 0.00 0.00 0.00 69 1008.3
20260507030811 42 22 0.0 0.0 0.00 0.00 0.00 68 1008.8
20260507025031 42 0 0.0 0.0 0.00 0.00 0.00 68 1008.2
20260507023316 42 22 0.0 0.0 0.00 0.00 0.00 68 1007.9
20260507021451 43 45 0.0 0.0 0.00 0.00 0.00 68 1007.9
20260507015726 43 22 0.0 0.0 0.00 0.00 0.00 68 1007.4
20260507013831 42 0 0.0 0.0 0.00 0.00 0.00 68 1008.0
20260507012036 42 22 0.0 0.0 0.00 0.00 0.00 68 1006.8
20260507010351 42 0 0.0 0.0 0.00 0.00 0.00 68 1008.5
20260507004631 42 0 0.0 0.0 0.00 0.00 0.00 67 1007.6
20260507002751 42 337 0.0 0.0 0.00 0.00 0.00 67 1008.3
20260507000924 42 0 0.0 0.0 0.00 0.00 0.00 67 1007.2
20260506235146 42 0 0.0 0.0 0.00 0.00 0.00 66 1007.9
20260506233516 43 22 0.0 0.0 0.00 0.00 0.00 66 1008.5
20260506231731 43 22 0.0 0.0 0.00 0.00 0.00 66 1007.9
20260506225831 43 0 0.0 0.0 0.00 0.00 0.00 66 1008.5
20260506224131 43 22 0.0 0.0 0.00 0.00 0.00 65 1007.5
20260506222446 44 337 0.0 0.0 0.00 0.00 0.00 65 1007.0
20260506220701 44 0 0.0 12.0 0.00 0.00 0.00 64 1007.1
20260506214826 44 67 0.0 0.0 0.00 0.00 0.00 64 1005.8
20260506213200 44 0 0.0 0.0 0.00 0.00 0.00 63 1007.3
20260506211454 44 292 0.0 0.0 0.00 0.00 0.00 63 1007.7
20260506205551 44 337 0.0 15.0 0.00 0.00 0.00 62 1007.5
20260506203701 44 292 0.0 16.0 0.00 0.00 0.00 62 1007.4
20260506201916 44 0 0.0 10.0 0.00 0.00 0.00 62 1007.7
20260506200241 45 270 9.0 21.0 0.00 0.00 0.00 61 1008.7
20260506194436 45 0 0.0 0.0 0.00 0.00 0.00 61 1007.0
20260506192531 45 0 0.0 7.0 0.00 0.00 0.00 60 1006.8
20260506190926 45 315 11.0 11.0 0.00 0.00 0.00 60 1008.1
20260506185026 46 22 0.0 0.0 0.00 0.00 0.00 59 1006.9
20260506183106 46 22 0.0 0.0 0.00 0.00 0.00 59 1008.0
20260506181226 46 270 0.0 0.0 0.00 0.00 0.00 58 1007.4
20260506173600 47 337 0.0 15.0 0.00 0.00 0.00 59 1008.1
20260506171921 48 337 0.0 24.0 0.00 0.00 0.00 59 1008.1
20260506170111 49 22 0.0 17.0 0.00 0.00 0.00 59 1007.4
20260506164146 50 270 0.0 12.0 0.00 0.00 0.00 59 1008.1
20260506162336 50 315 0.0 16.0 0.00 0.00 0.00 59 1009.2
20260506160426 51 22 0.0 10.0 0.00 0.00 0.00 59 1007.2
20260506154626 52 22 0.0 0.0 0.00 0.00 0.00 59 1008.3
20260506152836 52 180 0.0 0.0 0.00 0.00 0.00 59 1007.5
20260506151056 53 157 0.0 0.0 0.00 0.00 0.00 59 1007.7
20260506145241 54 157 0.0 0.0 0.00 0.00 0.00 59 1008.1
20260506143501 55 157 0.0 5.0 0.00 0.00 0.00 59 1007.8
20260506141846 56 135 0.0 0.0 0.00 0.00 0.00 59 1007.5
20260506140118 55 135 0.0 0.0 0.00 0.00 0.00 60 1009.7
20260506134206 55 112 0.0 6.0 0.00 0.00 0.00 61 1009.5
20260506132451 55 157 0.0 8.0 0.00 0.00 0.00 61 1009.0
20260506130651 54 157 0.0 14.0 0.00 0.00 0.00 61 1008.6
20260506124816 56 135 12.0 12.0 0.00 0.00 0.00 60 1009.7
20260506123041 57 135 0.0 0.0 0.00 0.00 0.00 60 1009.5
20260506121121 57 135 0.0 18.0 0.00 0.00 0.00 61 1009.3
20260506115426 58 180 0.0 6.0 0.00 0.00 0.00 61 1010.1
20260506113656 55 67 0.0 11.0 0.00 0.00 0.00 63 1009.2
20260506111851 55 90 13.0 18.0 0.00 0.00 0.00 64 1008.7
20260506110011 57 135 0.0 20.0 0.00 0.00 0.00 62 1009.8
20260506104311 57 22 0.0 0.0 0.00 0.00 0.00 62 1009.2
20260506102526 57 67 0.0 20.0 0.00 0.00 0.00 61 1009.7
20260506100811 58 180 0.0 13.0 0.00 0.00 0.00 60 1009.4
20260506095106 59 157 0.0 0.0 0.00 0.00 0.00 60 1009.0
20260506093346 57 157 0.0 20.0 0.00 0.00 0.00 60 1009.8
20260506091621 59 0 0.0 12.0 0.00 0.00 0.00 58 1009.8
20260506085751 60 157 0.0 10.0 0.00 0.00 0.00 57 1008.7
20260506084121 58 202 0.0 0.0 0.00 0.00 0.00 58 1009.1